| time (UTC) | temp C | wind direction | speed KPH | gust KPH | rain 1hr cm | rain 24hr cm | rain mn cm | humidity % | barometer mb |
| 20260507211024 | 18 | 68 | 8.0 | 16.1 | 0.00 | 0.00 | 0.00 | 66 | 1013.7 |
| 20260507210526 | 18 | 53 | 4.8 | 17.7 | 0.00 | 0.00 | 0.00 | 66 | 1013.9 |
| 20260507210024 | 18 | 62 | 11.3 | 17.7 | 0.00 | 0.00 | 0.00 | 66 | 1014.0 |
| 20260507205524 | 18 | 84 | 8.0 | 14.5 | 0.00 | 0.00 | 0.00 | 67 | 1013.8 |
| 20260507205024 | 18 | 40 | 6.4 | 17.7 | 0.00 | 0.00 | 0.00 | 67 | 1013.8 |
| 20260507204524 | 18 | 74 | 14.5 | 17.7 | 0.00 | 0.00 | 0.00 | 67 | 1014.0 |
| 20260507204023 | 18 | 77 | 6.4 | 12.9 | 0.00 | 0.00 | 0.00 | 68 | 1013.9 |
| 20260507203523 | 17 | 58 | 6.4 | 12.9 | 0.00 | 0.00 | 0.00 | 69 | 1014.1 |
| 20260507203023 | 17 | 56 | 11.3 | 19.3 | 0.00 | 0.00 | 0.00 | 70 | 1014.3 |
| 20260507201533 | 17 | 33 | 9.7 | 17.7 | 0.00 | 0.00 | 0.00 | 70 | 1014.6 |
| 20260507201032 | 17 | 23 | 6.4 | 14.5 | 0.00 | 0.00 | 0.00 | 72 | 1014.7 |
| 20260507200532 | 17 | 58 | 6.4 | 16.1 | 0.00 | 0.00 | 0.00 | 72 | 1014.5 |
| 20260507200032 | 17 | 44 | 11.3 | 16.1 | 0.00 | 0.00 | 0.00 | 73 | 1014.6 |
| 20260507195531 | 17 | 44 | 8.0 | 14.5 | 0.00 | 0.00 | 0.00 | 73 | 1014.6 |
| 20260507195031 | 17 | 58 | 8.0 | 16.1 | 0.00 | 0.00 | 0.00 | 74 | 1014.7 |
| 20260507194531 | 17 | 21 | 11.3 | 16.1 | 0.00 | 0.00 | 0.00 | 74 | 1014.7 |
| 20260507194031 | 17 | 28 | 8.0 | 16.1 | 0.00 | 0.00 | 0.00 | 74 | 1014.8 |
| 20260507193531 | 17 | 44 | 9.7 | 16.1 | 0.00 | 0.00 | 0.00 | 74 | 1015.0 |
| 20260507193031 | 16 | 44 | 8.0 | 19.3 | 0.00 | 0.00 | 0.00 | 76 | 1015.1 |
| 20260507191555 | 16 | 41 | 9.7 | 19.3 | 0.00 | 0.00 | 0.00 | 76 | 1015.1 |
| 20260507191053 | 16 | 10 | 14.5 | 19.3 | 0.00 | 0.00 | 0.00 | 77 | 1015.2 |
| 20260507190553 | 16 | 50 | 9.7 | 16.1 | 0.00 | 0.00 | 0.00 | 77 | 1015.1 |
| 20260507190054 | 16 | 33 | 8.0 | 14.5 | 0.00 | 0.00 | 0.00 | 78 | 1015.2 |
| 20260507185552 | 16 | 53 | 6.4 | 17.7 | 0.00 | 0.00 | 0.00 | 78 | 1015.4 |
| 20260507185053 | 16 | 22 | 9.7 | 19.3 | 0.00 | 0.00 | 0.00 | 79 | 1015.4 |
| 20260507184553 | 16 | 16 | 11.3 | 19.3 | 0.00 | 0.00 | 0.00 | 78 | 1015.5 |
| 20260507184053 | 16 | 320 | 6.4 | 14.5 | 0.00 | 0.00 | 0.00 | 79 | 1015.6 |
| 20260507183555 | 16 | 28 | 8.0 | 16.1 | 0.00 | 0.00 | 0.00 | 79 | 1015.6 |
| 20260507183052 | 16 | 16 | 12.9 | 19.3 | 0.00 | 0.00 | 0.00 | 80 | 1015.5 |
| 20260507181538 | 16 | 23 | 11.3 | 19.3 | 0.00 | 0.00 | 0.00 | 80 | 1015.6 |
| 20260507181037 | 16 | 25 | 12.9 | 20.9 | 0.00 | 0.00 | 0.00 | 80 | 1015.8 |
| 20260507180543 | 16 | 31 | 16.1 | 20.9 | 0.00 | 0.00 | 0.00 | 80 | 1015.7 |
| 20260507180036 | 16 | 16 | 14.5 | 20.9 | 0.00 | 0.00 | 0.00 | 80 | 1015.9 |
| 20260507175537 | 16 | 44 | 14.5 | 20.9 | 0.00 | 0.00 | 0.00 | 79 | 1015.8 |
| 20260507175036 | 16 | 35 | 12.9 | 19.3 | 0.00 | 0.00 | 0.00 | 80 | 1015.8 |
| 20260507174546 | 16 | 39 | 11.3 | 19.3 | 0.00 | 0.00 | 0.00 | 80 | 1016.1 |
| 20260507174035 | 15 | 16 | 11.3 | 20.9 | 0.00 | 0.00 | 0.00 | 81 | 1015.9 |
| 20260507173535 | 15 | 31 | 11.3 | 17.7 | 0.00 | 0.00 | 0.00 | 81 | 1016.1 |
| 20260507173035 | 16 | 27 | 11.3 | 19.3 | 0.00 | 0.00 | 0.00 | 81 | 1016.2 |
| 20260507171544 | 15 | 41 | 14.5 | 19.3 | 0.00 | 0.00 | 0.00 | 81 | 1016.2 |
| 20260507171033 | 15 | 33 | 12.9 | 20.9 | 0.00 | 0.00 | 0.00 | 82 | 1016.2 |
| 20260507170533 | 15 | 15 | 12.9 | 22.5 | 0.00 | 0.00 | 0.00 | 83 | 1016.1 |
| 20260507170033 | 15 | 12 | 16.1 | 22.5 | 0.00 | 0.00 | 0.00 | 83 | 1016.1 |
| 20260507165535 | 15 | 6 | 12.9 | 20.9 | 0.00 | 0.00 | 0.00 | 84 | 1016.0 |
| 20260507165032 | 15 | 29 | 12.9 | 17.7 | 0.00 | 0.00 | 0.00 | 86 | 1016.2 |
| 20260507164534 | 15 | 44 | 11.3 | 17.7 | 0.00 | 0.00 | 0.00 | 87 | 1016.1 |
| 20260507164031 | 15 | 29 | 11.3 | 22.5 | 0.00 | 0.00 | 0.00 | 87 | 1016.2 |
| 20260507163531 | 15 | 21 | 14.5 | 22.5 | 0.00 | 0.00 | 0.00 | 86 | 1016.1 |
| 20260507163031 | 15 | 24 | 12.9 | 22.5 | 0.00 | 0.00 | 0.00 | 86 | 1016.2 |
| 20260507161520 | 15 | 9 | 12.9 | 20.9 | 0.00 | 0.00 | 0.00 | 86 | 1016.0 |
| 20260507161018 | 15 | 26 | 12.9 | 22.5 | 0.00 | 0.00 | 0.00 | 86 | 1016.1 |
| 20260507160516 | 15 | 33 | 14.5 | 22.5 | 0.00 | 0.00 | 0.00 | 86 | 1016.1 |
| 20260507160016 | 15 | 31 | 14.5 | 20.9 | 0.00 | 0.00 | 0.00 | 86 | 1015.9 |
| 20260507155513 | 15 | 37 | 16.1 | 20.9 | 0.00 | 0.00 | 0.00 | 85 | 1015.9 |
| 20260507155014 | 15 | 44 | 9.7 | 20.9 | 0.00 | 0.00 | 0.00 | 86 | 1015.7 |
| 20260507154517 | 15 | 33 | 11.3 | 22.5 | 0.00 | 0.00 | 0.00 | 86 | 1015.7 |
| 20260507154011 | 15 | 31 | 14.5 | 22.5 | 0.00 | 0.00 | 0.00 | 85 | 1015.7 |
| 20260507153511 | 15 | 31 | 11.3 | 17.7 | 0.00 | 0.00 | 0.00 | 85 | 1015.7 |
| 20260507153015 | 15 | 25 | 11.3 | 19.3 | 0.00 | 0.00 | 0.00 | 87 | 1015.6 |
| 20260507151558 | 15 | 34 | 11.3 | 19.3 | 0.00 | 0.00 | 0.00 | 87 | 1015.4 |
| 20260507151053 | 15 | 36 | 12.9 | 20.9 | 0.00 | 0.00 | 0.00 | 88 | 1015.4 |
| 20260507150553 | 15 | 27 | 14.5 | 22.5 | 0.00 | 0.00 | 0.00 | 88 | 1015.4 |
| 20260507150052 | 15 | 14 | 9.7 | 16.1 | 0.00 | 0.00 | 0.00 | 88 | 1015.3 |
| 20260507145552 | 15 | 27 | 9.7 | 16.1 | 0.00 | 0.00 | 0.00 | 87 | 1015.2 |
| 20260507145051 | 15 | 60 | 6.4 | 19.3 | 0.00 | 0.00 | 0.00 | 87 | 1015.3 |
| 20260507144551 | 15 | 31 | 9.7 | 19.3 | 0.00 | 0.00 | 0.00 | 87 | 1015.4 |
| 20260507144050 | 15 | 54 | 8.0 | 16.1 | 0.00 | 0.00 | 0.00 | 87 | 1015.4 |
| 20260507143550 | 15 | 41 | 8.0 | 16.1 | 0.00 | 0.00 | 0.00 | 87 | 1015.3 |
| 20260507143052 | 15 | 11.3 | 0.0 | 0.00 | 0.00 | 0.00 | 87 | 1015.3 | |
| 20260507141534 | 15 | 16 | 8.0 | 20.9 | 0.00 | 0.00 | 0.00 | 87 | 1015.0 |
| 20260507141032 | 15 | 23 | 14.5 | 19.3 | 0.00 | 0.00 | 0.00 | 87 | 1014.9 |
| 20260507140531 | 15 | 1 | 9.7 | 25.7 | 0.00 | 0.00 | 0.00 | 87 | 1014.8 |
| 20260507140040 | 15 | 8 | 12.9 | 29.0 | 0.00 | 0.00 | 0.00 | 86 | 1014.6 |
| 20260507135529 | 15 | 37 | 19.3 | 29.0 | 0.00 | 0.00 | 0.00 | 86 | 1014.5 |
| 20260507135030 | 15 | 19 | 19.3 | 32.2 | 0.00 | 0.00 | 0.00 | 86 | 1014.5 |
| 20260507134530 | 15 | 23 | 20.9 | 29.0 | 0.00 | 0.00 | 0.00 | 86 | 1014.6 |
| 20260507134027 | 16 | 29 | 19.3 | 27.4 | 0.00 | 0.00 | 0.00 | 86 | 1014.4 |
| 20260507133526 | 16 | 10 | 19.3 | 25.7 | 0.00 | 0.00 | 0.00 | 86 | 1014.3 |
| 20260507133026 | 16 | 21 | 19.3 | 29.0 | 0.00 | 0.00 | 0.00 | 82 | 1014.3 |
| 20260507131512 | 17 | 48 | 17.7 | 32.2 | 0.00 | 0.00 | 0.00 | 81 | 1014.2 |
| 20260507131008 | 17 | 11 | 16.1 | 32.2 | 0.00 | 0.00 | 0.00 | 79 | 1014.2 |
| 20260507130507 | 17 | 22 | 19.3 | 27.4 | 0.00 | 0.00 | 0.00 | 78 | 1014.0 |
| 20260507130004 | 17 | 28 | 19.3 | 29.0 | 0.00 | 0.00 | 0.00 | 76 | 1013.9 |
| 20260507125506 | 17 | 39 | 19.3 | 30.6 | 0.00 | 0.00 | 0.00 | 76 | 1013.6 |
| 20260507125003 | 17 | 15 | 19.3 | 29.0 | 0.00 | 0.00 | 0.00 | 76 | 1013.5 |
| 20260507124503 | 17 | 16 | 19.3 | 29.0 | 0.00 | 0.00 | 0.00 | 76 | 1013.5 |
| 20260507124002 | 17 | 14 | 20.9 | 30.6 | 0.00 | 0.00 | 0.00 | 76 | 1013.4 |
| 20260507123600 | 17 | 19 | 19.3 | 30.6 | 0.00 | 0.00 | 0.00 | 76 | 1013.2 |
| 20260507123105 | 18 | 19.3 | 0.0 | 0.00 | 0.00 | 0.00 | 73 | 1012.8 | |
| 20260507121536 | 18 | 16 | 19.3 | 27.4 | 0.00 | 0.00 | 0.00 | 73 | 1012.7 |
| 20260507121036 | 18 | 12 | 16.1 | 29.0 | 0.00 | 0.00 | 0.00 | 72 | 1012.6 |
| 20260507120534 | 18 | 14 | 19.3 | 29.0 | 0.00 | 0.00 | 0.00 | 72 | 1012.7 |
| 20260507120038 | 18 | 35 | 17.7 | 27.4 | 0.00 | 0.00 | 0.00 | 71 | 1012.8 |
| 20260507115532 | 18 | 359 | 19.3 | 27.4 | 0.00 | 0.00 | 0.00 | 70 | 1012.6 |
| 20260507115031 | 18 | 8 | 11.3 | 22.5 | 0.00 | 0.00 | 0.00 | 70 | 1012.4 |
| 20260507114529 | 18 | 21 | 14.5 | 22.5 | 0.00 | 0.00 | 0.00 | 70 | 1012.3 |
| 20260507114032 | 18 | 33 | 9.7 | 25.7 | 0.00 | 0.00 | 0.00 | 70 | 1012.3 |
| 20260507113528 | 18 | 29 | 14.5 | 25.7 | 0.00 | 0.00 | 0.00 | 70 | 1012.4 |
| 20260507113057 | 18 | 19.3 | 0.0 | 0.00 | 0.00 | 0.00 | 71 | 1012.2 | |
| 20260507111518 | 18 | 21 | 19.3 | 27.4 | 0.00 | 0.00 | 0.00 | 71 | 1012.0 |
| 20260507111016 | 19 | 29 | 16.1 | 29.0 | 0.00 | 0.00 | 0.00 | 71 | 1012.0 |
| 20260507110516 | 19 | 33 | 22.5 | 29.0 | 0.00 | 0.00 | 0.00 | 71 | 1011.9 |
| 20260507110015 | 19 | 23 | 19.3 | 30.6 | 0.00 | 0.00 | 0.00 | 71 | 1011.8 |
| 20260507105515 | 19 | 21 | 20.9 | 29.0 | 0.00 | 0.00 | 0.00 | 71 | 1011.7 |
| 20260507105012 | 19 | 4 | 17.7 | 22.5 | 0.00 | 0.00 | 0.00 | 71 | 1011.6 |
| 20260507104517 | 19 | 9 | 14.5 | 24.1 | 0.00 | 0.00 | 0.00 | 72 | 1011.5 |
| 20260507104012 | 19 | 25 | 16.1 | 24.1 | 0.00 | 0.00 | 0.00 | 72 | 1011.5 |
| 20260507103510 | 20 | 23 | 16.1 | 24.1 | 0.00 | 0.00 | 0.00 | 72 | 1011.6 |
| 20260507103010 | 20 | 14.5 | 0.0 | 0.00 | 0.00 | 0.00 | 73 | 1011.6 | |
| 20260507101600 | 20 | 24 | 12.9 | 20.9 | 0.00 | 0.00 | 0.00 | 73 | 1011.2 |
| 20260507101101 | 20 | 37 | 11.3 | 24.1 | 0.00 | 0.00 | 0.00 | 73 | 1011.2 |
| 20260507100558 | 20 | 50 | 16.1 | 24.1 | 0.00 | 0.00 | 0.00 | 73 | 1011.2 |
| 20260507100100 | 20 | 25 | 11.3 | 22.5 | 0.00 | 0.00 | 0.00 | 73 | 1011.1 |
| 20260507095556 | 20 | 35 | 16.1 | 22.5 | 0.00 | 0.00 | 0.00 | 73 | 1011.0 |
| 20260507095054 | 20 | 29 | 11.3 | 17.7 | 0.00 | 0.00 | 0.00 | 72 | 1011.1 |
| 20260507094605 | 20 | 36 | 11.3 | 17.7 | 0.00 | 0.00 | 0.00 | 72 | 1011.0 |
| 20260507094053 | 20 | 39 | 11.3 | 16.1 | 0.00 | 0.00 | 0.00 | 72 | 1011.0 |
| 20260507093553 | 20 | 58 | 6.4 | 16.1 | 0.00 | 0.00 | 0.00 | 72 | 1010.9 |
| 20260507093052 | 20 | 11.3 | 0.0 | 0.00 | 0.00 | 0.00 | 71 | 1010.9 | |
| 20260507091551 | 20 | 37 | 9.7 | 17.7 | 0.00 | 0.00 | 0.00 | 71 | 1010.8 |
| 20260507091051 | 20 | 50 | 9.7 | 20.9 | 0.00 | 0.00 | 0.00 | 70 | 1010.9 |
| 20260507090549 | 21 | 39 | 11.3 | 20.9 | 0.00 | 0.00 | 0.00 | 69 | 1011.0 |
| 20260507090048 | 21 | 23 | 12.9 | 20.9 | 0.00 | 0.00 | 0.00 | 69 | 1010.8 |
| 20260507085546 | 21 | 24 | 14.5 | 22.5 | 0.00 | 0.00 | 0.00 | 67 | 1010.8 |
| 20260507085046 | 21 | 14 | 12.9 | 22.5 | 0.00 | 0.00 | 0.00 | 66 | 1010.8 |
| 20260507084554 | 21 | 13 | 14.5 | 20.9 | 0.00 | 0.00 | 0.00 | 65 | 1010.8 |
| 20260507084043 | 21 | 17 | 12.9 | 17.7 | 0.00 | 0.00 | 0.00 | 63 | 1010.8 |
| 20260507083543 | 21 | 37 | 11.3 | 17.7 | 0.00 | 0.00 | 0.00 | 63 | 1010.8 |
| 20260507083042 | 21 | 11.3 | 0.0 | 0.00 | 0.00 | 0.00 | 61 | 1011.0 | |
| 20260507081546 | 22 | 45 | 12.9 | 16.1 | 0.00 | 0.00 | 0.00 | 61 | 1010.8 |
| 20260507081046 | 22 | 36 | 11.3 | 19.3 | 0.00 | 0.00 | 0.00 | 60 | 1010.8 |
| 20260507080545 | 22 | 37 | 11.3 | 20.9 | 0.00 | 0.00 | 0.00 | 58 | 1010.6 |
| 20260507080042 | 22 | 32 | 11.3 | 24.1 | 0.00 | 0.00 | 0.00 | 56 | 1010.7 |
| 20260507075544 | 22 | 39 | 16.1 | 24.1 | 0.00 | 0.00 | 0.00 | 56 | 1010.8 |
| 20260507075040 | 22 | 25 | 16.1 | 24.1 | 0.00 | 0.00 | 0.00 | 54 | 1010.7 |
| 20260507074542 | 22 | 23 | 9.7 | 17.7 | 0.00 | 0.00 | 0.00 | 52 | 1010.9 |
| 20260507074038 | 22 | 44 | 6.4 | 12.9 | 0.00 | 0.00 | 0.00 | 51 | 1010.9 |
| 20260507073537 | 22 | 50 | 6.4 | 12.9 | 0.00 | 0.00 | 0.00 | 50 | 1010.9 |
| 20260507073037 | 22 | 6.4 | 0.0 | 0.00 | 0.00 | 0.00 | 48 | 1010.8 | |
| 20260507071524 | 22 | 61 | 6.4 | 12.9 | 0.00 | 0.00 | 0.00 | 48 | 1010.7 |
| 20260507071024 | 22 | 15 | 6.4 | 11.3 | 0.00 | 0.00 | 0.00 | 47 | 1010.7 |
| 20260507070524 | 22 | 44 | 3.2 | 8.0 | 0.00 | 0.00 | 0.00 | 47 | 1010.8 |
| 20260507070024 | 23 | 39 | 4.8 | 8.0 | 0.00 | 0.00 | 0.00 | 46 | 1010.8 |
| 20260507065522 | 23 | 42 | 4.8 | 11.3 | 0.00 | 0.00 | 0.00 | 46 | 1010.9 |
| 20260507065021 | 23 | 31 | 6.4 | 11.3 | 0.00 | 0.00 | 0.00 | 46 | 1011.0 |
| 20260507064521 | 23 | 28 | 3.2 | 8.0 | 0.00 | 0.00 | 0.00 | 46 | 1010.9 |
| 20260507064020 | 23 | 51 | 1.6 | 8.0 | 0.00 | 0.00 | 0.00 | 46 | 1010.9 |
| 20260507063520 | 23 | 68 | 4.8 | 8.0 | 0.00 | 0.00 | 0.00 | 45 | 1010.8 |
| 20260507063019 | 23 | 0.0 | 0.0 | 0.00 | 0.00 | 0.00 | 44 | 1010.8 | |
| 20260507061534 | 23 | 48 | 4.8 | 6.4 | 0.00 | 0.00 | 0.00 | 44 | 1010.8 |
| 20260507061026 | 23 | 45 | 3.2 | 6.4 | 0.00 | 0.00 | 0.00 | 44 | 1010.8 |
| 20260507060526 | 23 | 54 | 3.2 | 6.4 | 0.00 | 0.00 | 0.00 | 44 | 1010.7 |
| 20260507060034 | 23 | 108 | 1.6 | 6.4 | 0.00 | 0.00 | 0.00 | 43 | 1010.7 |
| 20260507055525 | 23 | 112 | 1.6 | 6.4 | 0.00 | 0.00 | 0.00 | 43 | 1010.6 |
| 20260507055022 | 23 | 83 | 1.6 | 4.8 | 0.00 | 0.00 | 0.00 | 42 | 1010.4 |
| 20260507054534 | 23 | 65 | 0.0 | 0.0 | 0.00 | 0.00 | 0.00 | 42 | 1010.4 |
| 20260507054022 | 23 | 64 | 0.0 | 0.0 | 0.00 | 0.00 | 0.00 | 42 | 1010.4 |
| 20260507053620 | 23 | 62 | 0.0 | 0.0 | 0.00 | 0.00 | 0.00 | 42 | 1010.4 |
| 20260507053018 | 23 | 6.4 | 0.0 | 0.00 | 0.00 | 0.00 | 41 | 1010.3 | |
| 20260507051545 | 23 | 100 | 6.4 | 12.9 | 0.00 | 0.00 | 0.00 | 41 | 1010.3 |
| 20260507051045 | 24 | 123 | 3.2 | 8.0 | 0.00 | 0.00 | 0.00 | 40 | 1010.3 |
| 20260507050545 | 24 | 146 | 3.2 | 9.7 | 0.00 | 0.00 | 0.00 | 40 | 1010.3 |
| 20260507045543 | 24 | 145 | 6.4 | 8.0 | 0.00 | 0.00 | 0.00 | 39 | 1010.3 |
| 20260507045043 | 24 | 143 | 4.8 | 8.0 | 0.00 | 0.00 | 0.00 | 39 | 1010.3 |
| 20260507044551 | 24 | 127 | 4.8 | 8.0 | 0.00 | 0.00 | 0.00 | 39 | 1010.4 |
| 20260507044046 | 25 | 127 | 1.6 | 9.7 | 0.00 | 0.00 | 0.00 | 38 | 1010.2 |
| 20260507043541 | 25 | 135 | 4.8 | 9.7 | 0.00 | 0.00 | 0.00 | 38 | 1010.1 |
| 20260507043041 | 25 | 0.0 | 0.0 | 0.00 | 0.00 | 0.00 | 36 | 1009.9 | |
| 20260507041521 | 25 | 90 | 4.8 | 14.5 | 0.00 | 0.00 | 0.00 | 36 | 1010.0 |
| 20260507041021 | 25 | 95 | 8.0 | 19.3 | 0.00 | 0.00 | 0.00 | 36 | 1009.9 |
| 20260507040522 | 25 | 95 | 11.3 | 19.3 | 0.00 | 0.00 | 0.00 | 35 | 1009.8 |
| 20260507040023 | 25 | 100 | 9.7 | 22.5 | 0.00 | 0.00 | 0.00 | 35 | 1009.8 |
| 20260507035519 | 25 | 79 | 11.3 | 22.5 | 0.00 | 0.00 | 0.00 | 35 | 1009.9 |
| 20260507035021 | 25 | 57 | 14.5 | 22.5 | 0.00 | 0.00 | 0.00 | 34 | 1009.6 |
| 20260507034522 | 25 | 59 | 12.9 | 19.3 | 0.00 | 0.00 | 0.00 | 34 | 1009.7 |
| 20260507034021 | 26 | 75 | 12.9 | 25.7 | 0.00 | 0.00 | 0.00 | 33 | 1009.8 |
| 20260507033520 | 26 | 78 | 16.1 | 25.7 | 0.00 | 0.00 | 0.00 | 33 | 1009.5 |
| 20260507033026 | 26 | 16.1 | 0.0 | 0.00 | 0.00 | 0.00 | 31 | 1009.3 | |
| 20260507031545 | 26 | 86 | 12.9 | 25.7 | 0.00 | 0.00 | 0.00 | 31 | 1009.4 |
| 20260507031048 | 26 | 52 | 16.1 | 25.7 | 0.00 | 0.00 | 0.00 | 30 | 1009.2 |
| 20260507030545 | 26 | 50 | 16.1 | 25.7 | 0.00 | 0.00 | 0.00 | 30 | 1009.2 |
| 20260507030046 | 26 | 82 | 14.5 | 24.1 | 0.00 | 0.00 | 0.00 | 29 | 1009.3 |
| 20260507025545 | 26 | 90 | 16.1 | 24.1 | 0.00 | 0.00 | 0.00 | 28 | 1009.4 |
| 20260507025045 | 27 | 109 | 17.7 | 25.7 | 0.00 | 0.00 | 0.00 | 27 | 1009.4 |
| 20260507024547 | 27 | 90 | 17.7 | 25.7 | 0.00 | 0.00 | 0.00 | 27 | 1009.4 |
| 20260507024044 | 27 | 81 | 14.5 | 25.7 | 0.00 | 0.00 | 0.00 | 29 | 1009.0 |
| 20260507023545 | 27 | 73 | 19.3 | 25.7 | 0.00 | 0.00 | 0.00 | 30 | 1008.9 |
| 20260507023041 | 27 | 0.0 | 0.0 | 0.00 | 0.00 | 0.00 | 29 | 1008.8 | |
| 20260507021608 | 27 | 90 | 16.1 | 29.0 | 0.00 | 0.00 | 0.00 | 29 | 1008.4 |
| 20260507021058 | 27 | 75 | 14.5 | 29.0 | 0.00 | 0.00 | 0.00 | 30 | 1008.3 |
| 20260507020558 | 28 | 77 | 17.7 | 25.7 | 0.00 | 0.00 | 0.00 | 29 | 1008.4 |
| 20260507020059 | 28 | 90 | 16.1 | 24.1 | 0.00 | 0.00 | 0.00 | 29 | 1008.3 |
| 20260507015557 | 28 | 90 | 14.5 | 24.1 | 0.00 | 0.00 | 0.00 | 29 | 1008.4 |
| 20260507015057 | 28 | 90 | 17.7 | 27.4 | 0.00 | 0.00 | 0.00 | 29 | 1008.2 |
| 20260507014558 | 28 | 60 | 16.1 | 30.6 | 0.00 | 0.00 | 0.00 | 29 | 1008.1 |
| 20260507014056 | 28 | 68 | 19.3 | 29.0 | 0.00 | 0.00 | 0.00 | 30 | 1007.9 |
| 20260507013556 | 28 | 62 | 16.1 | 22.5 | 0.00 | 0.00 | 0.00 | 30 | 1007.9 |
| 20260507013054 | 28 | 0.0 | 0.0 | 0.00 | 0.00 | 0.00 | 33 | 1007.8 | |
| 20260507011548 | 28 | 95 | 14.5 | 22.5 | 0.00 | 0.00 | 0.00 | 33 | 1007.7 |
| 20260507011044 | 28 | 81 | 14.5 | 22.5 | 0.00 | 0.00 | 0.00 | 34 | 1007.5 |
| 20260507010544 | 28 | 74 | 12.9 | 19.3 | 0.00 | 0.00 | 0.00 | 34 | 1007.4 |
| 20260507010046 | 28 | 76 | 11.3 | 19.3 | 0.00 | 0.00 | 0.00 | 35 | 1007.3 |
| 20260507005544 | 29 | 81 | 9.7 | 22.5 | 0.00 | 0.00 | 0.00 | 35 | 1007.3 |
| 20260507005044 | 29 | 85 | 14.5 | 22.5 | 0.00 | 0.00 | 0.00 | 35 | 1007.2 |
| 20260507004543 | 29 | 86 | 11.3 | 20.9 | 0.00 | 0.00 | 0.00 | 35 | 1007.1 |
| 20260507004043 | 29 | 95 | 14.5 | 24.1 | 0.00 | 0.00 | 0.00 | 35 | 1007.0 |
| 20260507003543 | 29 | 83 | 16.1 | 24.1 | 0.00 | 0.00 | 0.00 | 35 | 1007.0 |
| 20260507003042 | 29 | 80 | 20.9 | 20.9 | 0.00 | 0.00 | 0.00 | 36 | 1007.1 |
| 20260507001604 | 30 | 78 | 12.9 | 24.1 | 0.00 | 0.00 | 0.00 | 36 | 1006.8 |
| 20260507001055 | 30 | 79 | 16.1 | 24.1 | 0.00 | 0.00 | 0.00 | 36 | 1006.9 |
| 20260507000555 | 30 | 70 | 17.7 | 24.1 | 0.00 | 0.00 | 0.00 | 36 | 1006.7 |
| 20260507000058 | 30 | 59 | 14.5 | 22.5 | 0.00 | 0.00 | 0.00 | 35 | 1006.7 |
| 20260506235557 | 30 | 44 | 16.1 | 22.5 | 0.00 | 0.00 | 0.00 | 35 | 1006.7 |
| 20260506235054 | 30 | 82 | 14.5 | 24.1 | 0.00 | 0.00 | 0.00 | 35 | 1006.9 |
| 20260506234619 | 30 | 66 | 12.9 | 24.1 | 0.00 | 0.00 | 0.00 | 35 | 1006.6 |
| 20260506234054 | 30 | 62 | 17.7 | 24.1 | 0.00 | 0.00 | 0.00 | 34 | 1006.5 |
| 20260506233554 | 30 | 95 | 16.1 | 30.6 | 0.00 | 0.00 | 0.00 | 34 | 1006.3 |
| 20260506233055 | 32 | 0.0 | 0.0 | 0.00 | 0.00 | 0.00 | 29 | 1006.3 | |
| 20260506231507 | 32 | 100 | 19.3 | 29.0 | 0.00 | 0.00 | 0.00 | 29 | 1006.0 |
| 20260506231007 | 33 | 90 | 6.4 | 9.7 | 0.00 | 0.00 | 0.00 | 17 | 1005.6 |
| 20260506230506 | 33 | 100 | 1.6 | 4.8 | 0.00 | 0.00 | 0.00 | 17 | 1005.7 |
| 20260506230010 | 33 | 72 | 0.0 | 16.1 | 0.00 | 0.00 | 0.00 | 17 | 1005.8 |
| 20260506225511 | 33 | 79 | 4.8 | 16.1 | 0.00 | 0.00 | 0.00 | 17 | 1005.6 |
| 20260506225006 | 33 | 112 | 4.8 | 14.5 | 0.00 | 0.00 | 0.00 | 17 | 1005.5 |
| 20260506224507 | 33 | 141 | 1.6 | 9.7 | 0.00 | 0.00 | 0.00 | 17 | 1005.3 |
| 20260506224006 | 33 | 95 | 1.6 | 8.0 | 0.00 | 0.00 | 0.00 | 17 | 1005.2 |
| 20260506223509 | 33 | 90 | 3.2 | 14.5 | 0.00 | 0.00 | 0.00 | 17 | 1005.6 |
| 20260506223012 | 33 | 50 | 9.7 | 17.7 | 0.00 | 0.00 | 0.00 | 17 | 1005.6 |
| 20260506221538 | 33 | 123 | 11.3 | 17.7 | 0.00 | 0.00 | 0.00 | 17 | 1005.3 |
| 20260506221042 | 33 | 95 | 9.7 | 17.7 | 0.00 | 0.00 | 0.00 | 17 | 1005.2 |
| 20260506220537 | 33 | 85 | 9.7 | 17.7 | 0.00 | 0.00 | 0.00 | 17 | 1005.3 |
| 20260506220038 | 33 | 66 | 9.7 | 16.1 | 0.00 | 0.00 | 0.00 | 16 | 1005.4 |
| 20260506215536 | 33 | 129 | 8.0 | 16.1 | 0.00 | 0.00 | 0.00 | 16 | 1005.5 |
| 20260506215037 | 33 | 138 | 6.4 | 9.7 | 0.00 | 0.00 | 0.00 | 17 | 1005.3 |
| 20260506214540 | 33 | 68 | 3.2 | 17.7 | 0.00 | 0.00 | 0.00 | 17 | 1005.5 |
| 20260506214035 | 33 | 56 | 11.3 | 17.7 | 0.00 | 0.00 | 0.00 | 16 | 1005.4 |
| 20260506213538 | 33 | 64 | 9.7 | 20.9 | 0.00 | 0.00 | 0.00 | 16 | 1005.4 |
| 20260506213035 | 33 | 70 | 9.7 | 20.9 | 0.00 | 0.00 | 0.00 | 16 | 1005.4 |
| 20260506212534 | 33 | 303 | 4.8 | 14.5 | 0.00 | 0.00 | 0.00 | 16 | 1005.5 |
| 20260506212035 | 33 | 140 | 8.0 | 14.5 | 0.00 | 0.00 | 0.00 | 17 | 1005.6 |
| 20260506211534 | 33 | 82 | 6.4 | 16.1 | 0.00 | 0.00 | 0.00 | 17 | 1005.7 |